Weather History for Bowling Green, KY

Change the Weather History Date:

Friday, July 5, 2013

  Actual Average Record
Temperature  
Mean Temperature 74 °F 78 °F  
Max Temperature 79 °F 89 °F 103 °F (2012)
Min Temperature 68 °F 68 °F 52 °F (1968)
Degree Days  
Heating Degree Days 0 0  
Month to date heating degree days 0 0  
Since 1 June heating degree days 0 5  
Since 1 July heating degree days 0 0  
Cooling Degree Days 9 13  
Month to date cooling degree days 38 65  
Year to date cooling degree days 585 523  
Since 1 June cooling degree days 372 370  
Growing Degree Days 24 (Base 50)    
Moisture  
Dew Point 68 °F    
Average Humidity 84    
Maximum Humidity 93    
Minimum Humidity 74    
Precipitation  
Precipitation 1.25 in 0.14 in 2.42 in (1987)
Month to date precipitation 5.36 0.71  
Year to date precipitation 32.26 26.84  
Snow  
Snow 0.00 in 0.00 in 0.00 in ()
Month to date snowfall 0.0 0.0  
Since 1 June snowfall 0.0 0.0  
Since 1 July snowfall 0.0 0.0  
Snow Depth 0.00 in    
Sea Level Pressure  
Sea Level Pressure 30.10 in    
Wind  
Wind Speed 3 mph (SSE)    
Max Wind Speed 13 mph    
Max Gust Speed 24 mph    
Visibility 9 miles    
Events Rain    
T = Trace of Precipitation, MM = Missing Value Source: NWS Daily Summary

Daily Weather History Graph

Daily Weather History Graph

Search for Another Location

Airport:

Trip Planner

Search our weather history database for the weather conditions in past years. The results will help you decide how hot, cold, wet, or windy it might be!

Date:

Astronomy

Jul. 05, 2013 Rise Set
Actual Time 5:31 AM CDT 8:08 PM CDT
Civil Twilight 5:01 AM CDT 8:39 PM CDT
Nautical Twilight 4:23 AM CDT 9:16 PM CDT
Astronomical Twilight 3:41 AM CDT 9:59 PM CDT
Moon 3:29 AM CDT (7/5) 6:04 PM CDT (7/5)
Length of Visible Light 15h 37m
Length of Day
14h 36m
Waning Crescent, 6% of the Moon is Illuminated
Jul 5
Waning Crescent
Jul 8
New
Jul 15
First Quarter
Jul 22
Full
Jul 29
Last Quarter

Hourly Weather History & Observations

Time (CDT) Temp. Dew Point Humidity Pressure Visibility Wind Dir Wind Speed Gust Speed Precip Events Conditions
12:53 AM 68.0 °F 64.9 °F 90% 30.07 in 10.0 mi Calm Calm - N/A   Overcast
1:25 AM 68.0 °F 64.4 °F 88% 30.08 in 10.0 mi Calm Calm - N/A   Overcast
1:53 AM 68.0 °F 64.9 °F 90% 30.06 in 10.0 mi Calm Calm - 0.00 in   Overcast
2:39 AM 68.0 °F 66.2 °F 94% 30.07 in 10.0 mi ENE 3.5 mph - N/A   Overcast
2:53 AM 68.0 °F 66.0 °F 93% 30.05 in 10.0 mi Calm Calm - N/A   Overcast
3:08 AM 68.0 °F 66.2 °F 94% 30.06 in 10.0 mi Calm Calm - N/A   Overcast
3:37 AM 68.0 °F 66.2 °F 94% 30.06 in 10.0 mi Calm Calm - N/A   Overcast
3:53 AM 68.0 °F 66.0 °F 93% 30.06 in 10.0 mi Calm Calm - N/A   Overcast
4:13 AM 68.0 °F 66.2 °F 94% 30.07 in 10.0 mi Calm Calm - N/A   Overcast
4:44 AM 69.8 °F 66.2 °F 88% 30.08 in 10.0 mi Calm Calm - N/A   Overcast
4:53 AM 69.1 °F 66.0 °F 90% 30.06 in 9.0 mi Calm Calm - 0.00 in Rain Light Rain
5:29 AM 69.8 °F 66.2 °F 88% 30.08 in 4.0 mi ESE 3.5 mph - 0.12 in Rain Heavy Rain
5:37 AM 69.8 °F 66.2 °F 88% 30.08 in 5.0 mi Calm Calm - 0.14 in Rain Light Rain
5:51 AM 69.8 °F 66.2 °F 88% 30.08 in 3.0 mi Calm Calm - 0.15 in Rain Light Rain
5:53 AM 69.1 °F 66.9 °F 93% 30.07 in 3.0 mi Calm Calm - 0.15 in Rain Light Rain
6:00 AM 69.8 °F 66.2 °F 88% 30.09 in 4.0 mi Calm Calm - 0.01 in Rain Rain
6:08 AM 69.8 °F 66.2 °F 88% 30.09 in 3.0 mi Calm Calm - 0.02 in Rain Rain
6:14 AM 69.8 °F 66.2 °F 88% 30.09 in 4.0 mi Calm Calm - 0.03 in Rain Light Rain
6:19 AM 69.8 °F 66.2 °F 88% 30.09 in 2.5 mi Calm Calm - 0.05 in Rain Heavy Rain
6:28 AM 69.8 °F 68.0 °F 94% 30.09 in 5.0 mi SE 3.5 mph - 0.07 in Rain Light Rain
6:53 AM 70.0 °F 68.0 °F 93% 30.09 in 10.0 mi Calm Calm - 0.07 in   Overcast
7:12 AM 69.8 °F 68.0 °F 94% 30.10 in 10.0 mi Calm Calm - 0.00 in Rain Light Rain
7:44 AM 71.6 °F 68.0 °F 88% 30.11 in 10.0 mi Calm Calm - 0.02 in   Overcast
7:53 AM 71.1 °F 68.0 °F 90% 30.10 in 10.0 mi SSE 3.5 mph - 0.02 in   Overcast
8:07 AM 71.6 °F 69.8 °F 94% 30.12 in 10.0 mi SSE 4.6 mph - N/A   Overcast
8:44 AM 71.6 °F 68.0 °F 88% 30.13 in 9.0 mi SSW 5.8 mph - 0.02 in Rain Light Rain
8:53 AM 72.0 °F 68.0 °F 87% 30.11 in 7.0 mi South 4.6 mph - 0.04 in Rain Light Rain
9:05 AM 71.6 °F 68.0 °F 88% 30.12 in 10.0 mi South 3.5 mph - 0.01 in Rain Light Rain
9:18 AM 71.6 °F 68.0 °F 88% 30.12 in 10.0 mi South 4.6 mph - 0.01 in   Overcast
9:53 AM 73.9 °F 66.9 °F 79% 30.12 in 10.0 mi SSW 3.5 mph - 0.01 in   Overcast
10:53 AM 75.9 °F 66.9 °F 74% 30.12 in 10.0 mi SSE 3.5 mph - N/A   Overcast
11:53 AM 75.0 °F 68.0 °F 79% 30.12 in 10.0 mi ESE 3.5 mph - N/A   Overcast
12:50 PM 78.8 °F 69.8 °F 74% 30.12 in 10.0 mi ESE 4.6 mph - N/A   Overcast
12:53 PM 78.1 °F 69.1 °F 74% 30.11 in 10.0 mi Calm Calm - N/A   Overcast
1:10 PM 78.8 °F 69.8 °F 74% 30.11 in 10.0 mi ESE 4.6 mph - N/A   Overcast
1:38 PM 78.8 °F 69.8 °F 74% 30.11 in 10.0 mi Calm Calm - 0.00 in   Overcast
1:48 PM 78.8 °F 69.8 °F 74% 30.10 in 10.0 mi ESE 5.8 mph - 0.00 in   Overcast
1:53 PM 79.0 °F 70.0 °F 74% 30.09 in 10.0 mi East 4.6 mph - 0.00 in   Overcast
2:44 PM 77.0 °F 69.8 °F 78% 30.11 in 10.0 mi SSE 10.4 mph - 0.00 in   Mostly Cloudy
2:53 PM 77.0 °F 70.0 °F 79% 30.10 in 10.0 mi South 10.4 mph - 0.00 in   Overcast
3:53 PM 73.9 °F 70.0 °F 87% 30.10 in 9.0 mi South 8.1 mph - 0.06 in Rain Rain
4:53 PM 73.9 °F 71.1 °F 91% 30.09 in 10.0 mi SW 4.6 mph - 0.16 in Rain Light Rain
5:30 PM 73.4 °F 69.8 °F 88% 30.10 in 10.0 mi South 4.6 mph - 0.03 in Rain Light Rain
5:42 PM 73.4 °F 69.8 °F 88% 30.10 in 10.0 mi SSE 6.9 mph - 0.03 in Rain Light Rain
5:51 PM 73.4 °F 69.8 °F 88% 30.09 in 10.0 mi SE 4.6 mph - 0.03 in   Scattered Clouds
5:53 PM 73.9 °F 70.0 °F 87% 30.08 in 10.0 mi SE 5.8 mph - 0.03 in   Scattered Clouds
6:30 PM 73.4 °F 71.6 °F 94% 30.11 in 10.0 mi SE 3.5 mph - 0.01 in Rain Light Rain
6:38 PM 73.4 °F 69.8 °F 88% 30.11 in 8.0 mi ESE 4.6 mph - 0.03 in Rain Rain
6:53 PM 73.0 °F 70.0 °F 90% 30.09 in 8.0 mi East 4.6 mph - 0.08 in Rain Rain
7:08 PM 71.6 °F 69.8 °F 94% 30.10 in 8.0 mi East 3.5 mph - 0.04 in Rain Rain
7:18 PM 71.6 °F 69.8 °F 94% 30.11 in 9.0 mi ESE 4.6 mph - 0.07 in Rain Rain
7:30 PM 71.6 °F 69.8 °F 94% 30.11 in 10.0 mi SSE 5.8 mph - 0.08 in Rain Rain
7:43 PM 71.6 °F 69.8 °F 94% 30.10 in 10.0 mi South 10.4 mph - 0.10 in Rain Light Rain
7:53 PM 71.1 °F 68.0 °F 90% 30.10 in 6.0 mi South 10.4 mph - 0.14 in Rain Heavy Rain
8:53 PM 69.1 °F 66.0 °F 90% 30.12 in 7.0 mi ESE 6.9 mph - 0.34 in Rain Heavy Rain
9:53 PM 69.1 °F 66.9 °F 93% 30.12 in 10.0 mi Calm Calm - 0.10 in   Overcast
10:31 PM 69.8 °F 66.2 °F 88% 30.13 in 10.0 mi Calm Calm - 0.04 in   Overcast
10:53 PM 69.1 °F 66.0 °F 90% 30.12 in 10.0 mi Calm Calm - 0.04 in   Overcast
11:31 PM 69.8 °F 66.2 °F 88% 30.15 in 10.0 mi Calm Calm - N/A   Overcast
11:53 PM 70.0 °F 66.9 °F 90% 30.13 in 10.0 mi Calm Calm - N/A   Overcast